SCP
0 0 -0 -0 -0 -0 -0 0 0 0 0 0 0 0 0 0 0 0 0 0 0 0 0 0 0 0 0 0 0 0 0 0 0 0 0 0 0 0 0 0 0 0 0
0 0 0 -0 -0 -0 -0 0 0 0 0 0 0 0 0 0 0 0 0 0 0 0 0 0 0 0 0 0 0 0 0 0 0 0 0 0 0 0 0 0 0 0 0
0 0 0 0 0 0 0 0 0 0 0 0 0 0 0 0 0 0 0 0 0 0 0 0 0 0 0 0 0 0 0 0 0 0 0 0 0 0 0 0 0 0 0
0 0 0 0 0 0 0 0 0 0 0 0 0 0 0 0 0 0 0 0 0 0 0 0 0 0 0 0 0 0 0 0 0 0 0 0 0 0 0 0 0 0 0
0 0 0 0 0 0 0 0 0 0 0 0 0 0 0 0 0 0 0 0 0 0 0 0 0 0 0 0 0 0 0 0 0 0 0 0 0 0 0 0 0 0 0
0 0 0 0 0 0 0 0 0 0 0 0 0 0 0 0 0 0 0 0 0 0 0 0 0 0 0 0 0 0 0 0 0 0 0 0 0 0 0 0 0 0 0
0 0 0 0 0 0 0 0 0 0 0 0 0 0 0 0 0 0 0 0 0 0 0 0 0 0 0 0 0 0 0 0 0 0 0 0 0 0 0 0 0 0 0
0 0 0 0 0 0 0 0 0 0 0 0 0 0 0 0 0 0 0 0 0 0 0 0 0 0 0 0 0 0 0 0 0 0 0 0 0 0 0 0 0 0 0
0 0 0 0 0 0 0 0 0 0 0 0 0 0 0 0 0 0 0 0 0 0 0 0 0 0 0 0 0 0 0 0 0 0 0 0 0 0 0 0 0 0 0
0 0 0 0 0 0 0 0 0 0 0 0 0 0 0 0 0 0 0 0 0 0 0 0 0 0 0 0 0 0 0 0 0 0 0 0 0 0 0 0 0 0 0
0 0 0 0 0 0 0 0 0 0 0 0 0 0 0 0 0 0 0 0 0 0 0 0 0 0 0 0 0 0 0 0 0 0 0 0 0 0 0 0 0 0 0
0 0 0 0 0 0 0 0 0 0 0 0 0 0 0 0 0 0 0 0 0 0 0 0 0 0 0 0 0 0 0 0 0 0 0 0 0 0 0 0 0 0 0
0 0 0 0 0 0 0 0 0 0 0 0 0 0 0 0 0 0 0 0 0 0 0 0 0 0 0 0 0 0 0 0 0 0 0 0 0 0 0 0 0 0 0
0 0 0 0 0 0 0 0 0 0 0 0 0 0 0 0 0 0 0 0 0 0 0 0 0 0 0 0 0 0 0 0 0 0 0 0 0 0 0 0 0 0 0
0 0 0 0 0 0 0 0 0 0 0 0 0 0 0 0 0 0 0 0 0 0 0 0 0 0 0 0 0 0 0 0 0 0 0 0 0 0 0 0 0 0 0
0 0 0 0 0 0 0 0 0 0 0 0 0 0 0 0 0 0 0 0 0 0 0 0 0 0 0 0 0 0 0 0 0 0 0 0 0 0 0 0 0 0 0
0 0 0 0 0 0 0 0 0 0 0 0 0 0 0 0 0 0 0 0 0 0 0 0 0 0 0 0 0 0 0 0 0 0 0 0 0 0 0 0 0 0 0
0 0 0 0 0 0 0 0 0 0 0 0 0 0 0 0 0 0 0 0 0 0 0 0 0 0 0 0 0 0 0 0 0 0 0 0 0 0 0 0 0 0 0
0 0 0 0 0 0 0 0 0 0 0 0 0 0 0 0 0 0 0 0 0 0 0 0 0 0 0 0 0 0 0 0 0 0 0 0 0 0 0 0 0 0 0
0 0 0 0 0 0 0 0 0 0 0 0 0 0 0 0 0 0 0 0 0 0 0 0 0 0 0 0 0 0 0 0 0 0 0 0 0 0 0 0 0 0 0
0 0 0 0 0 0 0 0 0 0 0 0 0 0 0 0 0 0 0 0 0 0 0 0 0 0 0 0 0 0 0 0 0 0 0 0 0 0 0 0 0 0 0
0 0 0 0 0 0 0 0 0 0 0 0 0 0 0 0 0 0 0 0 0 0 0 0 0 0 0 0 0 0 0 0 0 0 0 0 0 0 0 0 0 0 0
0 0 0 0 0 0 0 0 0 0 0 0 0 0 0 0 0 0 0 0 0 0 0 0 0 0 0 0 0 0 0 0 0 0 0 0 0 0 0 0 0 0 0
0 0 0 0 0 0 0 0 0 0 0 0 0 0 0 0 0 0 0 0 0 0 0 0 0 0 0 0 0 0 0 0 0 0 0 0 0 0 0 0 0 0 0
0 0 0 0 0 0 0 0 0 0 0 0 0 0 0 0 0 0 0 0 0 0 0 0 0 0 0 0 0 0 0 0 0 0 0 0 0 0 0 0 0 0 0
0 0 0 0 0 0 0 0 0 0 0 0 0 0 0 0 0 0 0 0 0 0 0 0 0 0 0 0 0 0 0 0 0 0 0 0 0 0 0 0 0 0 0
Wind_Speed
5 4 3 3 3 2 2 2 2 3 6 5 4 5 3 3 4 3 3 7 6 4 5 6 6 5 5 7 8 9 9 9 9 8 7 6 5 5 4 3 3 5 4
5 4 4 4 4 3 3 3 4 5 4 4 5 4 4 3 3 3 3 6 10 7 6 7 7 7 8 8 9 9 8 8 7 6 6 5 5 5 4 3 3 4 3
6 6 4 4 4 4 4 3 4 4 4 3 4 4 4 3 3 3 3 3 4 8 8 8 8 9 9 9 9 9 8 7 6 6 5 5 4 4 4 3 3 3 2
6 5 5 5 5 4 4 4 3 3 4 3 2 2 2 3 3 3 3 2 3 4 7 11 10 10 10 9 9 8 7 6 5 4 3 3 3 2 3 3 2 1 1
5 4 4 5 5 4 4 5 3 3 3 4 3 2 3 3 2 3 3 2 2 3 4 7 12 12 10 8 8 7 6 6 5 4 3 2 2 2 4 4 2 0 2
4 3 3 4 4 4 4 4 4 2 3 4 4 3 2 3 2 2 2 2 2 3 3 4 5 6 11 11 8 6 6 6 6 5 3 2 2 3 4 4 3 2 2
3 3 3 4 4 4 5 6 4 3 2 2 3 2 3 2 1 2 2 2 3 3 3 3 2 3 3 9 10 9 7 8 8 8 6 4 3 2 2 2 3 4 4
4 3 4 4 3 3 5 5 5 4 2 2 3 3 1 2 2 1 1 2 3 3 3 3 3 3 2 2 4 9 10 8 9 9 8 7 4 2 2 2 1 1 2
5 4 4 4 4 4 5 5 6 6 5 3 2 4 4 4 2 3 1 1 2 2 3 4 4 4 3 2 2 5 8 8 7 7 8 7 7 6 4 4 3 2 3
4 4 4 4 4 3 4 5 5 4 6 5 2 2 2 4 4 1 2 1 2 3 4 4 5 4 4 3 3 4 7 7 6 5 7 8 8 8 9 8 6 5 5
3 4 4 5 4 3 4 5 5 5 4 5 4 3 2 1 2 3 2 2 2 2 3 4 4 4 4 4 3 4 5 5 5 5 6 7 7 8 8 7 6 4 5
2 3 3 4 5 5 5 5 5 6 5 5 4 3 4 3 2 2 2 2 3 3 3 3 4 5 4 4 6 8 6 4 4 5 6 6 6 6 6 6 6 5 5
2 4 3 4 4 5 5 5 5 5 6 6 6 4 4 4 4 3 2 2 2 2 2 2 4 5 5 4 5 10 7 6 5 5 4 4 4 4 4 4 4 5 4
4 4 4 4 4 5 5 5 4 5 5 6 7 7 5 5 5 5 4 3 2 2 3 4 3 5 5 5 6 10 5 8 7 6 5 3 2 2 2 3 4 5 5
3 4 4 4 4 4 5 5 4 5 5 6 6 7 5 5 5 5 5 5 5 5 6 6 5 5 5 5 8 6 5 9 9 8 6 4 2 1 1 1 3 5 6
4 5 4 3 3 3 4 4 3 4 5 5 4 6 6 5 4 5 5 5 5 5 6 6 5 4 6 7 11 7 6 11 12 10 8 7 5 4 3 3 3 4 6
5 5 5 4 4 4 4 4 4 4 4 4 4 5 7 7 5 5 5 4 5 4 5 3 2 3 6 6 6 5 5 5 5 12 11 10 8 7 6 4 4 4 4
5 5 5 5 5 5 4 4 4 4 4 4 4 5 6 5 7 6 5 5 4 4 4 3 3 3 4 5 6 5 4 6 5 12 14 13 12 9 7 6 5 5 4
5 5 5 6 6 5 5 5 4 4 4 4 4 5 5 5 5 5 6 6 4 3 2 3 3 2 1 2 3 3 4 3 5 8 13 13 12 11 9 8 7 6 4
6 6 6 6 6 6 6 5 4 4 4 4 4 3 4 5 5 6 6 6 6 4 3 2 2 2 2 2 3 3 3 4 4 5 7 8 11 13 12 11 9 7 6
6 6 5 5 5 6 7 7 6 5 5 4 3 3 4 6 8 6 5 5 5 4 3 3 2 2 2 3 4 4 5 3 3 3 3 4 5 5 6 10 11 11 9
5 4 4 4 5 6 10 12 9 6 5 5 5 4 4 6 9 11 10 10 8 5 4 3 2 2 2 3 3 4 4 3 4 4 5 4 4 5 5 5 10 12 11
3 4 4 5 5 7 10 12 13 6 6 6 5 4 4 6 9 6 9 12 11 12 10 5 4 4 4 4 4 6 6 7 7 4 4 4 3 6 5 7 14 15 15
1 2 3 3 3 5 8 9 11 6 5 5 5 6 5 6 6 7 7 7 8 9 10 8 6 7 7 6 7 8 8 8 3 3 5 4 4 5 5 6 14 17 16
3 2 2 1 1 3 5 8 8 4 4 4 4 4 5 6 10 11 7 7 6 6 10 12 12 12 13 14 10 5 5 5 5 4 5 5 3 3 3 4 9 15 16
3 3 4 3 2 2 3 4 6 3 3 3 3 3 4 5 8 9 8 7 7 6 6 7 8 9 7 5 6 6 5 5 3 3 4 5 3 3 3 3 3 4 8
Wind_Direction
173 175 177 187 198 202 198 149 136 108 108 114 111 109 102 96 83 58 29 58 78 105 133 147 142 126 124 140 139 139 149 154 152 154 158 160 157 150 145 140 113 103 88
182 180 189 203 203 200 199 170 158 135 124 122 119 127 134 130 104 81 47 41 54 73 101 123 130 128 126 127 127 124 132 137 139 144 149 152 155 158 155 152 115 97 78
180 184 191 203 209 195 179 154 146 130 122 118 119 131 148 162 136 103 74 44 33 48 76 102 115 120 119 121 121 122 125 127 126 125 131 138 147 160 163 164 132 98 61
176 176 178 189 189 170 149 144 146 134 128 127 119 102 115 132 140 124 92 61 46 45 50 66 82 102 107 108 117 121 127 129 128 130 140 152 157 159 166 160 138 85 357
178 163 173 180 175 163 151 150 146 149 144 144 137 114 102 118 155 128 108 105 96 73 55 51 58 61 74 87 106 113 120 126 131 136 148 157 161 164 156 149 146 202 313
182 160 165 174 171 167 154 139 140 149 156 158 137 109 86 104 131 136 147 138 133 117 87 63 49 49 54 55 60 94 112 115 110 113 126 144 153 177 178 169 182 201 262
177 155 148 158 178 183 167 145 132 143 144 128 97 67 19 31 123 155 145 148 150 142 128 110 78 60 42 44 39 56 80 92 83 75 76 88 108 150 181 196 219 213 231
165 169 161 157 178 173 158 157 144 139 150 155 133 122 64 352 330 325 146 166 174 149 144 154 130 104 84 51 35 46 42 57 71 65 64 65 69 103 179 194 219 194 238
184 179 171 154 162 171 182 177 164 152 158 175 162 147 152 197 252 309 284 172 176 155 143 150 156 146 134 103 53 39 45 40 56 56 61 65 63 64 84 98 87 77 68
194 187 177 156 156 169 189 194 185 171 155 165 170 182 161 159 152 218 306 283 218 190 162 153 162 168 159 144 122 90 65 49 57 66 60 63 68 69 68 65 63 66 72
200 197 184 161 158 175 194 200 198 184 166 166 162 162 146 127 123 140 214 260 263 243 197 166 165 168 169 158 150 141 106 77 71 71 62 55 55 60 61 53 42 49 75
204 205 188 170 167 181 194 200 202 193 184 170 166 163 158 160 162 144 166 219 227 239 215 186 177 176 179 175 176 165 150 128 105 87 72 62 53 47 45 37 22 24 51
209 217 196 184 176 188 196 194 197 202 192 182 178 184 186 178 160 150 154 210 228 236 198 209 202 182 181 183 180 174 171 161 145 127 106 83 60 47 41 28 9 0 18
205 202 192 192 188 189 195 196 199 204 200 198 195 192 197 197 184 174 170 173 209 239 224 223 206 198 181 180 190 179 178 179 170 165 154 130 78 36 28 22 6 355 357
178 160 162 176 185 187 192 191 201 206 203 205 203 203 204 202 196 192 185 180 185 203 225 218 208 204 185 176 183 179 178 190 186 185 178 170 167 191 258 295 339 343 339
166 159 174 194 204 194 179 178 188 208 212 209 196 199 209 209 203 197 195 195 199 201 217 215 205 195 183 184 186 178 186 196 197 192 189 191 199 211 227 247 294 325 328
177 180 190 208 222 209 187 173 174 183 213 232 223 210 216 207 203 192 183 184 191 189 207 224 193 188 175 177 174 174 182 193 197 201 200 203 209 217 226 236 260 292 312
200 196 189 194 206 209 205 198 196 194 212 232 232 222 222 211 200 188 182 177 176 182 181 188 191 181 187 184 167 174 181 191 196 208 207 208 211 218 225 234 253 270 290
210 209 195 195 201 208 216 221 214 217 230 240 236 224 217 198 189 178 176 172 166 161 154 160 182 179 177 163 154 175 188 200 206 214 213 215 216 219 225 232 243 258 266
212 216 212 209 204 204 213 224 219 227 243 255 248 220 199 186 177 167 172 171 162 151 144 136 146 171 184 153 150 172 201 214 220 213 210 208 217 221 225 232 238 245 248
229 226 222 223 211 199 206 209 209 214 224 239 243 216 190 184 181 175 167 167 163 157 152 145 157 169 175 160 194 189 205 206 234 215 203 210 212 220 221 233 238 237 236
236 230 227 222 211 211 211 205 200 199 203 209 217 222 218 214 213 210 199 185 176 169 169 159 153 195 208 212 202 193 193 185 243 214 192 224 200 223 221 219 230 233 238
249 237 222 209 213 221 222 214 208 194 196 205 206 208 223 227 224 219 222 214 202 195 189 176 186 212 219 218 214 207 202 206 219 195 169 233 211 233 226 228 228 230 232
300 250 242 224 224 242 236 218 204 194 204 216 215 210 219 240 224 210 208 212 211 208 205 205 210 224 231 230 227 224 219 224 238 185 167 207 210 222 221 219 228 224 221
21 357 318 319 259 281 251 215 187 175 203 227 232 223 220 236 246 219 198 206 211 217 215 220 229 241 248 250 242 222 201 197 226 224 188 200 212 211 228 226 226 222 215
17 28 39 40 42 351 306 225 197 177 212 243 264 267 261 251 247 220 194 196 208 215 201 210 227 237 239 249 232 210 202 201 212 240 198 186 184 164 255 260 228 214 210